Dubai, UAE

8:10 PM GST on February 27, 2017 (GMT +0400)
Dubai

Weather History for 41194 - December, 2013

Change the Weather History Date:

Sunday, December 22, 2013

  Actual Average Record
Temperature  
Mean Temperature 68 °F -  
Max Temperature 76 °F 74 °F - ()
Min Temperature 61 °F 59 °F - ()
Cooling Degree Days 4    
Growing Degree Days 18 (Base 50)    
Moisture  
Dew Point 55 °F    
Average Humidity 60    
Maximum Humidity 77    
Minimum Humidity 36    
Precipitation  
Precipitation 0.00 in 0.02 in - ()
Sea Level Pressure  
Sea Level Pressure 30.07 in    
Wind  
Wind Speed 6 mph ()    
Max Wind Speed 15 mph    
Max Gust Speed -    
Visibility 6.1 miles    
Events      
T = Trace of Precipitation, MM = Missing Value Source: Averaged Metar Reports

Daily Weather History Graph

Daily Weather History Graph

Search for Another Location

Airport or City:

Trip Planner

Search our weather history database for the weather conditions in past years. The results will help you decide how hot, cold, wet, or windy it might be!

Date:

Astronomy

Dec. 22, 2013 Rise Set
Actual Time 7:00 AM GST 5:34 PM GST
Civil Twilight 6:35 AM GST 5:59 PM GST
Nautical Twilight 6:06 AM GST 6:27 PM GST
Astronomical Twilight 5:38 AM GST 6:55 PM GST
Moon 9:58 PM GST (12/22) 10:07 AM GST (12/22)
Length of Visible Light 11h 24m
Length of Day
10h 34m
Waning Gibbous, 80% of the Moon is Illuminated
Dec 22
Waning Gibbous
Dec 25
Last Quarter
Jan 1
New
Jan 8
First Quarter
Jan 16
Full

Hourly Weather History & Observations

Time (GST) Temp. Dew Point Humidity Pressure Visibility Wind Dir Wind Speed Gust Speed Precip Events Conditions
12:00 AM 68.0 °F 51.8 °F 56% 30.06 in - SE 4.6 mph - N/A   Clear
1:00 AM 66.2 °F 53.6 °F 64% 30.06 in - South 5.8 mph - N/A   Clear
2:00 AM 66.2 °F 55.4 °F 68% 30.06 in - SSE 3.5 mph - N/A   Clear
3:00 AM 64.4 °F 55.4 °F 73% 30.06 in - SSE 4.6 mph - N/A   Clear
4:00 AM 64.4 °F 55.4 °F 73% 30.04 in - SSE 6.9 mph - N/A   Clear
5:00 AM 64.4 °F 55.4 °F 73% 30.04 in - SSE 3.5 mph - N/A   Clear
6:00 AM 62.6 °F 55.4 °F 77% 30.06 in - South 3.5 mph - N/A   Clear
7:00 AM 62 °F 56 °F 73% 30.09 in 6 mi SE 4.6 mph - -  
7:00 AM 62.6 °F 55.4 °F 77% 30.06 in - SE 4.6 mph - N/A   Clear
8:00 AM 62.6 °F 55.4 °F 77% 30.09 in - SE 6.9 mph - N/A   Clear
9:00 AM 68.0 °F 57.2 °F 68% 30.09 in - South 8.1 mph - N/A   Clear
10:00 AM 70 °F 56 °F 52% 30.13 in 6 mi SE 5.8 mph - -   Partly Cloudy
10:00 AM 69.8 °F 55.4 °F 60% 30.12 in 6.2 mi SE 5.8 mph - N/A   Scattered Clouds
11:00 AM 73.4 °F 53.6 °F 50% 30.09 in 6.2 mi SE 8.1 mph - N/A   Scattered Clouds
12:00 PM 75.2 °F 51.8 °F 44% 30.09 in 6.2 mi SSE 9.2 mph - N/A   Partly Cloudy
1:00 PM 76 °F 54 °F 36% 30.06 in 6 mi South 6.9 mph - -   Partly Cloudy
1:00 PM 77.0 °F 53.6 °F 44% 30.06 in 6.2 mi South 6.9 mph - N/A   Scattered Clouds
2:00 PM 75.2 °F 55.4 °F 50% 30.04 in 6.2 mi West 10.4 mph - N/A   Scattered Clouds
3:00 PM 73.4 °F 55.4 °F 53% 30.01 in 6.2 mi West 13.8 mph - N/A   Scattered Clouds
4:00 PM 74 °F 56 °F 44% 30.04 in 6 mi West 15.0 mph - -   Partly Cloudy
4:00 PM 73.4 °F 57.2 °F 57% 30.04 in 6.2 mi West 15.0 mph - N/A   Scattered Clouds
5:00 PM 73.4 °F 55.4 °F 53% 30.04 in 6.2 mi West 12.7 mph - N/A   Scattered Clouds
6:00 PM 71.6 °F 55.4 °F 57% 30.06 in 6.2 mi West 12.7 mph - N/A   Scattered Clouds
7:00 PM 72 °F 53 °F 40% 30.08 in 6 mi West 10.4 mph - -  
7:00 PM 71.6 °F 53.6 °F 53% 30.06 in - West 10.4 mph - N/A   Clear
8:00 PM 69.8 °F 57.2 °F 64% 30.09 in - Variable 5.8 mph - N/A   Clear
9:00 PM 68.0 °F 55.4 °F 64% 30.09 in - ENE 6.9 mph - N/A   Clear
10:00 PM 67 °F 55 °F 57% 30.10 in 6 mi East 8.1 mph - -   Partly Cloudy
10:00 PM 68.0 °F 55.4 °F 64% 30.09 in - East 8.1 mph - N/A   Clear
11:00 PM 66.2 °F 53.6 °F 64% 30.09 in - ESE 6.9 mph - N/A   Clear